Location: Alexandria
(38.8050°N, 77.0470°W)
Time: 21:20:29
(UTC-04:00)

Vanguard 3 - All Passes

Search period start: 26 May 2018 00:00
Search period end: 05 June 2018 00:00
Orbit: 507 x 3264 km, 33.4° (Epoch: 25 May)

Date Brightness Start Highest point End Pass type
(mag) Time Alt. Az. Time Alt. Az. Time Alt. Az.
26 May - 07:09:33 10° SE 07:15:04 12° SE 07:20:57 10° ESE daylight
26 May - 09:12:29 10° SSW 09:28:08 39° SE 09:45:05 10° E daylight
26 May - 11:24:29 10° WSW 11:43:45 65° SSE 12:00:46 10° E daylight
26 May - 13:40:22 10° W 14:00:16 73° S 14:14:08 10° ESE daylight
26 May - 15:58:14 10° W 16:15:05 53° SSW 16:25:26 10° SE daylight
26 May - 18:18:05 10° W 18:26:40 20° SW 18:32:53 10° S daylight
27 May - 08:00:08 10° S 08:12:40 26° SE 08:27:10 10° E daylight
27 May - 10:09:25 10° SW 10:27:01 55° SSE 10:45:06 10° E daylight
27 May - 12:23:34 10° WSW 12:43:31 73° S 12:59:37 10° E daylight
27 May - 14:40:33 10° W 14:59:39 66° SSW 15:12:09 10° ESE daylight
27 May - 16:59:05 10° W 17:12:57 35° SW 17:21:53 10° SSE daylight
28 May - 06:50:44 10° SSE 06:57:56 14° SE 07:06:02 10° E daylight
28 May - 08:55:31 10° SSW 09:10:50 42° SE 09:28:30 10° E daylight
28 May - 11:07:36 10° WSW 11:26:32 68° SSE 11:44:25 10° E daylight
28 May - 13:23:17 10° W 13:43:20 73° S 13:58:07 10° ESE daylight
28 May - 15:40:58 10° W 15:58:21 51° SSW 16:09:29 10° SE daylight
28 May - 18:01:25 10° W 18:10:00 18° SW 18:16:27 10° SSW daylight
29 May - 07:43:01 10° S 07:55:25 29° SE 08:10:35 10° E daylight
29 May - 09:52:39 10° SW 10:09:44 58° SSE 10:28:30 10° E daylight
29 May - 12:06:41 10° WSW 12:26:25 74° S 12:43:23 10° E daylight
29 May - 14:23:22 10° W 14:42:45 64° SSW 14:56:09 10° ESE daylight
29 May - 16:41:57 10° W 16:56:11 33° SW 17:05:46 10° SSE daylight
30 May - 06:32:51 10° SSE 06:40:49 16° SE 06:50:14 10° E daylight
30 May - 08:38:47 10° SSW 08:53:33 46° SE 09:11:43 10° E daylight
30 May - 10:50:54 10° WSW 11:09:19 70° SSE 11:27:57 10° E daylight
30 May - 13:06:18 10° W 13:26:18 72° S 13:41:59 10° ESE daylight
30 May - 15:23:45 10° W 15:41:27 48° SSW 15:53:24 10° SE daylight
30 May - 17:44:53 10° W 17:53:14 17° SW 17:59:46 10° SSW daylight
31 May - 07:26:11 10° SSW 07:38:13 32° SE 07:53:50 10° E daylight
31 May - 09:36:04 10° SW 09:52:28 61° SSE 10:11:46 10° E daylight
31 May - 11:49:55 10° W 12:09:16 74° S 12:27:03 10° E daylight
31 May - 14:06:16 10° W 14:25:45 62° SSW 14:40:01 10° SE daylight
31 May - 16:24:53 10° W 16:39:17 31° SW 16:49:26 10° SSE daylight
01 Jun - 06:15:32 10° SSE 06:23:45 18° SE 06:33:59 10° E daylight
01 Jun - 08:22:15 10° SW 08:36:19 49° SSE 08:54:48 10° E daylight
01 Jun - 10:34:21 10° WSW 10:52:06 72° S 11:11:21 10° E daylight
01 Jun - 12:49:25 10° W 13:09:11 71° SSW 13:25:43 10° ESE daylight
01 Jun - 15:06:37 10° W 15:24:26 46° SW 15:37:10 10° SSE daylight
01 Jun - 17:28:33 10° W 17:36:21 15° SW 17:42:45 10° SSW daylight
02 Jun - 07:09:35 10° SSW 07:21:05 34° SE 07:36:53 10° E daylight
02 Jun - 09:19:40 10° WSW 09:35:17 64° SSE 09:54:54 10° E daylight
02 Jun - 11:33:18 10° W 11:52:06 74° S 12:10:35 10° ESE daylight
02 Jun - 13:49:16 10° W 14:08:38 59° SSW 14:23:45 10° SE daylight
02 Jun - 16:07:55 10° W 16:22:16 29° SW 16:32:56 10° S daylight
03 Jun - 05:58:34 10° S 06:06:46 20° SE 06:17:28 10° E daylight
03 Jun - 08:05:55 10° SW 08:19:12 52° SSE 08:37:45 10° E daylight
03 Jun - 10:17:56 10° WSW 10:34:56 73° S 10:54:38 10° E daylight
03 Jun - 12:32:39 10° W 12:52:00 69° SSW 13:09:20 10° ESE daylight
03 Jun - 14:49:35 10° W 15:07:19 43° SW 15:20:46 10° SSE daylight
03 Jun - 17:12:36 10° WSW 17:19:23 14° SW 17:25:15 10° SSW daylight
04 Jun - 06:53:12 10° SSW 07:04:04 37° SE 07:19:49 10° E daylight
04 Jun - 09:03:24 10° WSW 09:18:10 66° SSE 09:37:56 10° E daylight
04 Jun - 11:16:47 10° W 11:34:55 74° S 11:54:00 10° ESE daylight
04 Jun - 13:32:22 10° W 13:51:25 56° SSW 14:07:18 10° SE daylight
04 Jun - 15:51:06 10° W 16:05:09 26° SW 16:16:11 10° S daylight
